N8WJE Weather Reports


time (UTC)temp
C
wind
direction
speed
KPH
gust
KPH
rain 1hr
cm
rain 24hr
cm
rain mn
cm
humidity
%
barometer
mb
20260510204218 26 275 1.6 9.7 0.00 0.00 0.00 45 1016.2
20260510203717 26 275 0.0 4.8 0.00 0.00 0.00 46 1016.1
20260510203003 26 0 0.0 0.0 0.00 0.00 0.00 47 1016.4
20260510202503 27 275 1.6 9.7 0.00 0.00 0.00 40 1016.3
20260510202003 26 275 4.8 16.1 0.00 0.00 0.00 46 1016.4
20260510201503 26 275 1.6 16.1 0.00 0.00 0.00 44 1016.4
20260510201003 26 275 4.8 12.9 0.00 0.00 0.00 44 1016.5
20260510200503 26 275 4.8 16.1 0.00 0.00 0.00 45 1016.5
20260510200003 26 275 1.6 16.1 0.00 0.00 0.00 48 1016.8
20260510195716 26 275 1.6 9.7 0.00 0.00 0.00 54 1016.6
20260510195003 26 275 0.0 9.7 0.00 0.00 0.00 47 1016.7
20260510194503 26 275 0.0 1.6 0.00 0.00 0.00 51 1016.8
20260510194003 26 275 1.6 9.7 0.00 0.00 0.00 51 1016.8
20260510193503 27 275 1.6 9.7 0.00 0.00 0.00 57 1016.8
20260510193003 27 275 1.6 9.7 0.00 0.00 0.00 50 1016.8
20260510192503 27 275 0.0 6.4 0.00 0.00 0.00 49 1016.7
20260510192003 27 275 0.0 4.8 0.00 0.00 0.00 54 1016.6
20260510191503 27 275 0.0 6.4 0.00 0.00 0.00 53 1016.5
20260510191217 27 275 0.0 6.4 0.00 0.00 0.00 52 1016.6
20260510190503 26 275 4.8 12.9 0.00 0.00 0.00 55 1016.5
20260510190003 26 275 1.6 12.9 0.00 0.00 0.00 53 1016.8
20260510185503 26 0 0.0 0.0 0.00 0.00 0.00 60 1016.8
20260510185003 26 0 0.0 0.0 0.00 0.00 0.00 54 1017.2
20260510184503 26 275 0.0 4.8 0.00 0.00 0.00 57 1017.0
20260510184003 25 275 1.6 12.9 0.00 0.00 0.00 58 1017.0
20260510183503 26 275 4.8 12.9 0.00 0.00 0.00 54 1017.1
20260510183003 25 275 0.0 9.7 0.00 0.00 0.00 59 1017.3
20260510182503 25 275 1.6 6.4 0.00 0.00 0.00 58 1017.2
20260510182003 25 275 1.6 6.4 0.00 0.00 0.00 57 1017.1
20260510181503 25 275 1.6 9.7 0.00 0.00 0.00 58 1017.1
20260510181003 25 275 1.6 9.7 0.00 0.00 0.00 58 1017.4
20260510180503 25 275 0.0 4.8 0.00 0.00 0.00 60 1017.5
20260510180003 25 275 0.0 1.6 0.00 0.00 0.00 64 1017.5
20260510175718 25 0 0.0 0.0 0.00 0.00 0.00 64 1017.5
20260510175003 24 275 0.0 6.4 0.00 0.00 0.00 66 1017.4
20260510174503 23 275 0.0 6.4 0.00 0.00 0.00 69 1017.4
20260510174003 23 0 0.0 0.0 0.00 0.00 0.00 69 1017.5
20260510173503 24 275 0.0 4.8 0.00 0.00 0.00 66 1017.5
20260510173003 23 275 0.0 4.8 0.00 0.00 0.00 71 1017.6
20260510172503 23 0 0.0 0.0 0.00 0.00 0.00 70 1017.6
20260510172003 23 275 0.0 1.6 0.00 0.00 0.00 75 1017.5
20260510171503 23 275 0.0 1.6 0.00 0.00 0.00 72 1017.5
20260510171003 23 277 0.0 4.8 0.00 0.00 0.00 76 1017.7
20260510170718 23 277 0.0 6.4 0.00 0.00 0.00 77 1017.7
20260510170003 23 277 0.0 6.4 0.00 0.00 0.00 74 1017.6
20260510165503 22 277 0.0 4.8 0.00 0.00 0.00 75 1017.7
20260510165003 22 277 0.0 4.8 0.00 0.00 0.00 79 1017.7
20260510164503 22 277 0.0 4.8 0.00 0.00 0.00 80 1017.8
20260510164003 22 0 0.0 0.0 0.00 0.00 0.00 80 1017.8
20260510163503 22 0 0.0 0.0 0.00 0.00 0.00 80 1017.9
20260510163003 22 277 0.0 1.6 0.00 0.00 0.00 79 1017.7
20260510162505 22 277 0.0 1.6 0.00 0.00 0.00 80 1018.0
20260510162003 22 277 0.0 1.6 0.00 0.00 0.00 82 1017.9
20260510161503 22 277 0.0 1.6 0.00 0.00 0.00 81 1017.8
20260510161003 22 0 0.0 0.0 0.00 0.00 0.00 83 1017.7
20260510160503 22 0 0.0 0.0 0.00 0.00 0.00 84 1017.8
20260510160003 21 277 0.0 1.6 0.00 0.00 0.00 84 1017.9
20260510155503 21 277 0.0 4.8 0.00 0.00 0.00 83 1017.8
20260510155003 21 277 0.0 4.8 0.00 0.00 0.00 83 1017.8
20260510154503 21 0 0.0 0.0 0.00 0.00 0.00 85 1017.6
20260510154218 21 0 0.0 0.0 0.00 0.00 0.00 85 1017.8
20260510153503 21 0 0.0 0.0 0.00 0.00 0.00 85 1017.5
20260510153003 21 0 0.0 0.0 0.00 0.00 0.00 85 1017.7
20260510152503 21 0 0.0 0.0 0.00 0.00 0.00 87 1017.5
20260510152003 20 0 0.0 0.0 0.00 0.00 0.00 88 1017.6
20260510151503 20 0 0.0 0.0 0.00 0.00 0.00 88 1017.6
20260510151003 20 0 0.0 0.0 0.00 0.00 0.00 89 1017.9
20260510150503 20 0 0.0 0.0 0.00 0.00 0.00 89 1017.7
20260510150218 19 0 0.0 0.0 0.00 0.00 0.00 90 1017.8
20260510145503 18 0 0.0 0.0 0.00 0.00 0.00 91 1017.6
20260510145003 18 0 0.0 0.0 0.00 0.00 0.00 92 1017.8
20260510144503 18 0 0.0 0.0 0.00 0.00 0.00 93 1017.6
20260510144003 18 0 0.0 0.0 0.00 0.00 0.00 93 1018.0
20260510143503 18 0 0.0 0.0 0.00 0.00 0.00 95 1017.9
20260510143003 17 0 0.0 0.0 0.00 0.00 0.00 95 1018.0
20260510142716 17 0 0.0 0.0 0.00 0.00 0.00 95 1018.0
20260510142217 17 0 0.0 0.0 0.00 0.00 0.00 95 1017.8
20260510141503 17 0 0.0 0.0 0.00 0.00 0.00 96 1018.0
20260510141003 17 0 0.0 0.0 0.00 0.00 0.00 96 1017.9
20260510140716 17 0 0.0 0.0 0.00 0.00 0.00 96 1017.9
20260510140217 17 0 0.0 0.0 0.00 0.00 0.00 96 1018.2
20260510135503 17 0 0.0 0.0 0.00 0.00 0.00 96 1018.0
20260510135003 17 0 0.0 0.0 0.00 0.00 0.00 96 1017.8
20260510134503 16 0 0.0 0.0 0.00 0.00 0.00 96 1017.8
20260510134003 16 0 0.0 0.0 0.00 0.00 0.00 96 1017.7
20260510133503 16 0 0.0 0.0 0.00 0.00 0.00 96 1017.6
20260510133003 16 0 0.0 0.0 0.00 0.00 0.00 96 1017.5
20260510132503 16 0 0.0 0.0 0.00 0.00 0.00 96 1017.5
20260510132003 16 0 0.0 0.0 0.00 0.00 0.00 96 1017.6
20260510131503 16 0 0.0 0.0 0.00 0.00 0.00 96 1017.5
20260510131003 16 0 0.0 0.0 0.00 0.00 0.00 96 1017.6
20260510130503 16 0 0.0 0.0 0.00 0.00 0.00 96 1017.4
20260510130003 16 0 0.0 0.0 0.00 0.00 0.00 96 1017.4
20260510125503 16 0 0.0 0.0 0.00 0.00 0.00 96 1017.1
20260510125003 16 0 0.0 0.0 0.00 0.00 0.00 96 1017.4
20260510124503 16 0 0.0 0.0 0.00 0.00 0.00 96 1017.1
20260510124217 16 0 0.0 0.0 0.00 0.00 0.00 96 1017.2
20260510123503 16 0 0.0 0.0 0.00 0.00 0.00 96 1017.0
20260510123003 16 0 0.0 0.0 0.00 0.00 0.00 96 1017.1
20260510122503 16 0 0.0 0.0 0.00 0.00 0.00 96 1017.1
20260510122003 16 277 0.0 4.8 0.00 0.00 0.00 96 1017.1
20260510121503 16 277 0.0 6.4 0.00 0.00 0.00 95 1016.9
20260510121003 16 277 0.0 6.4 0.00 0.00 0.00 96 1016.9
20260510120503 16 0 0.0 0.0 0.00 0.00 0.00 95 1017.0
20260510120003 16 0 0.0 0.0 0.00 0.00 0.00 95 1016.9
20260510115718 15 0 0.0 0.0 0.00 0.00 0.00 95 1016.8
20260510115216 15 0 0.0 0.0 0.00 0.00 0.00 95 1016.5
20260510114503 15 0 0.0 0.0 0.00 0.00 0.00 95 1016.6
20260510114003 15 0 0.0 0.0 0.00 0.00 0.00 95 1016.4
20260510113503 15 0 0.0 0.0 0.00 0.00 0.00 95 1016.5
20260510113003 15 0 0.0 0.0 0.00 0.00 0.00 95 1016.4
20260510112503 14 0 0.0 0.0 0.00 0.00 0.00 95 1016.4
20260510112003 14 0 0.0 0.0 0.00 0.00 0.00 95 1016.4
20260510111503 14 0 0.0 0.0 0.00 0.00 0.00 95 1016.5
20260510111216 14 0 0.0 0.0 0.00 0.00 0.00 95 1016.3
20260510110503 13 0 0.0 0.0 0.00 0.00 0.00 95 1016.5
20260510110003 13 0 0.0 0.0 0.00 0.00 0.00 95 1016.2
20260510105503 13 0 0.0 0.0 0.00 0.00 0.00 94 1015.9
20260510105003 13 0 0.0 0.0 0.00 0.00 0.00 94 1015.8
20260510104503 13 0 0.0 0.0 0.00 0.00 0.00 94 1015.7
20260510104003 13 0 0.0 0.0 0.00 0.00 0.00 94 1015.6
20260510103503 13 0 0.0 0.0 0.00 0.00 0.00 94 1015.6
20260510103003 13 0 0.0 0.0 0.00 0.00 0.00 94 1015.3
20260510102503 13 0 0.0 0.0 0.00 0.00 0.00 94 1015.4
20260510102003 13 0 0.0 0.0 0.00 0.00 0.00 94 1015.2
20260510101503 13 0 0.0 0.0 0.00 0.00 0.00 94 1015.2
20260510101003 13 0 0.0 0.0 0.00 0.00 0.00 94 1015.4
20260510100717 13 0 0.0 0.0 0.00 0.00 0.00 94 1015.3
20260510100003 13 0 0.0 0.0 0.00 0.00 0.00 94 1015.3
20260510095503 13 0 0.0 0.0 0.00 0.00 0.00 94 1015.2
20260510095003 13 0 0.0 0.0 0.00 0.00 0.00 94 1015.0
20260510094503 13 0 0.0 0.0 0.00 0.00 0.00 94 1015.1
20260510094003 13 0 0.0 0.0 0.00 0.00 0.00 94 1015.2
20260510093503 13 0 0.0 0.0 0.00 0.00 0.00 94 1014.8
20260510093003 13 0 0.0 0.0 0.00 0.00 0.00 94 1015.0
20260510092503 13 0 0.0 0.0 0.00 0.00 0.00 94 1015.0
20260510092003 13 0 0.0 0.0 0.00 0.00 0.00 94 1015.3
20260510091503 14 0 0.0 0.0 0.00 0.00 0.00 94 1015.3
20260510091003 13 0 0.0 0.0 0.00 0.00 0.00 94 1015.3
20260510090717 13 0 0.0 0.0 0.00 0.00 0.00 94 1015.4
20260510090003 13 0 0.0 0.0 0.00 0.00 0.00 94 1015.4
20260510085503 13 0 0.0 0.0 0.00 0.00 0.00 94 1015.2
20260510085003 14 0 0.0 0.0 0.00 0.00 0.00 94 1015.1
20260510084716 14 0 0.0 0.0 0.00 0.00 0.00 94 1014.9
20260510084003 14 0 0.0 0.0 0.00 0.00 0.00 94 1014.8
20260510083503 14 0 0.0 0.0 0.00 0.00 0.00 94 1014.9
20260510083003 14 0 0.0 0.0 0.00 0.00 0.00 94 1014.8
20260510082503 14 0 0.0 0.0 0.00 0.00 0.00 94 1014.4
20260510082003 14 0 0.0 0.0 0.00 0.00 0.00 94 1014.7
20260510081503 14 0 0.0 0.0 0.00 0.00 0.00 94 1014.6
20260510081003 14 0 0.0 0.0 0.00 0.00 0.00 94 1014.5
20260510080503 14 0 0.0 0.0 0.00 0.00 0.00 94 1014.2
20260510080003 14 0 0.0 0.0 0.00 0.00 0.00 94 1014.4
20260510075503 15 0 0.0 0.0 0.00 0.00 0.00 93 1014.2
20260510075003 15 0 0.0 0.0 0.00 0.00 0.00 94 1014.2
20260510074503 15 0 0.0 0.0 0.00 0.00 0.00 93 1014.2
20260510074003 15 0 0.0 0.0 0.00 0.00 0.00 94 1014.3
20260510073503 15 0 0.0 0.0 0.00 0.00 0.00 94 1014.3
20260510073217 15 0 0.0 0.0 0.00 0.00 0.00 94 1014.3
20260510072503 15 0 0.0 0.0 0.00 0.00 0.00 93 1014.2
20260510072003 15 0 0.0 0.0 0.00 0.00 0.00 94 1014.4
20260510071503 15 0 0.0 0.0 0.00 0.00 0.00 93 1014.4
20260510071003 15 0 0.0 0.0 0.00 0.00 0.00 93 1014.5
20260510070503 15 0 0.0 0.0 0.00 0.00 0.00 93 1014.3
20260510070003 15 0 0.0 0.0 0.00 0.00 0.00 93 1014.4
20260510065503 15 0 0.0 0.0 0.00 0.00 0.00 93 1014.3
20260510065217 15 0 0.0 0.0 0.00 0.00 0.00 93 1014.4
20260510064503 15 0 0.0 0.0 0.00 0.00 0.00 93 1014.4
20260510064217 15 0 0.0 0.0 0.00 0.00 0.00 93 1014.2
20260510063717 15 0 0.0 0.0 0.00 0.00 0.00 93 1014.2
20260510063216 15 0 0.0 0.0 0.00 0.00 0.00 93 1014.4
20260510062503 15 0 0.0 0.0 0.00 0.00 0.00 93 1014.4
20260510062216 15 0 0.0 0.0 0.00 0.00 0.00 93 1014.4
20260510061503 15 0 0.0 0.0 0.00 0.00 0.00 93 1014.5
20260510061216 15 0 0.0 0.0 0.00 0.00 0.00 93 1014.5
20260510060503 15 0 0.0 0.0 0.00 0.00 0.00 93 1014.2
20260510060003 15 0 0.0 0.0 0.00 0.00 0.00 93 1014.3
20260510055503 16 0 0.0 0.0 0.00 0.00 0.00 93 1014.6
20260510055003 16 0 0.0 0.0 0.00 0.00 0.00 92 1014.5
20260510054717 16 0 0.0 0.0 0.00 0.00 0.00 93 1014.5
20260510054003 16 0 0.0 0.0 0.00 0.00 0.00 93 1014.5
20260510053503 16 0 0.0 0.0 0.00 0.00 0.00 93 1014.3
20260510053003 16 0 0.0 0.0 0.00 0.00 0.00 92 1014.4
20260510052503 16 0 0.0 0.0 0.00 0.00 0.00 93 1014.4
20260510052003 16 0 0.0 0.0 0.00 0.00 0.00 92 1014.4
20260510051503 16 0 0.0 0.0 0.00 0.00 0.00 92 1014.5
20260510051003 16 0 0.0 0.0 0.00 0.00 0.00 92 1014.5
20260510050503 16 0 0.0 0.0 0.00 0.00 0.00 92 1014.4
20260510050003 16 0 0.0 0.0 0.00 0.00 0.00 92 1014.4
20260510045503 16 0 0.0 0.0 0.00 0.00 0.00 92 1014.4
20260510045003 16 0 0.0 0.0 0.00 0.00 0.00 92 1014.3
20260510044717 16 0 0.0 0.0 0.00 0.00 0.00 92 1014.3
20260510044003 16 0 0.0 0.0 0.00 0.00 0.00 91 1014.4
20260510043717 16 0 0.0 0.0 0.00 0.00 0.00 91 1014.6
20260510043003 17 0 0.0 0.0 0.00 0.00 0.00 91 1014.8
20260510042503 17 0 0.0 0.0 0.00 0.00 0.00 91 1014.2
20260510042003 17 0 0.0 0.0 0.00 0.00 0.00 90 1014.7
20260510041503 17 0 0.0 0.0 0.00 0.00 0.00 90 1014.5
20260510041218 17 0 0.0 0.0 0.00 0.00 0.00 90 1014.6
20260510040503 17 0 0.0 0.0 0.00 0.00 0.00 90 1014.6
20260510040003 17 0 0.0 0.0 0.00 0.00 0.00 90 1014.6
20260510035503 17 0 0.0 0.0 0.00 0.00 0.00 89 1014.4
20260510035003 17 0 0.0 0.0 0.00 0.00 0.00 89 1014.3
20260510034503 17 0 0.0 0.0 0.00 0.00 0.00 88 1014.7
20260510034003 18 0 0.0 0.0 0.00 0.00 0.00 88 1014.7
20260510033503 18 0 0.0 0.0 0.00 0.00 0.00 88 1014.7
20260510033003 18 0 0.0 0.0 0.00 0.00 0.00 87 1014.7
20260510032503 18 0 0.0 0.0 0.00 0.00 0.00 86 1014.7
20260510032003 18 0 0.0 0.0 0.00 0.00 0.00 86 1015.0
20260510031716 18 0 0.0 0.0 0.00 0.00 0.00 86 1014.6
20260510031003 18 0 0.0 0.0 0.00 0.00 0.00 85 1014.7
20260510030503 18 277 0.0 4.8 0.00 0.00 0.00 85 1014.5
20260510030003 18 277 0.0 4.8 0.00 0.00 0.00 85 1014.5
20260510025503 18 0 0.0 0.0 0.00 0.00 0.00 85 1014.5
20260510025003 19 277 0.0 4.8 0.00 0.00 0.00 84 1014.4
20260510024503 19 277 0.0 4.8 0.00 0.00 0.00 83 1014.4
20260510024003 19 0 0.0 0.0 0.00 0.00 0.00 83 1014.3
20260510023503 19 277 0.0 9.7 0.00 0.00 0.00 83 1014.3
20260510023003 20 277 0.0 9.7 0.00 0.00 0.00 82 1014.3
20260510022503 20 277 0.0 4.8 0.00 0.00 0.00 82 1013.8
20260510022003 20 277 0.0 4.8 0.00 0.00 0.00 82 1014.0
20260510021503 20 0 0.0 0.0 0.00 0.00 0.00 82 1014.0
20260510021003 20 0 0.0 0.0 0.00 0.00 0.00 82 1013.8
20260510020503 20 0 0.0 0.0 0.00 0.00 0.00 82 1013.6
20260510020003 20 277 0.0 1.6 0.00 0.00 0.00 81 1013.4
20260510015503 20 277 0.0 1.6 0.00 0.00 0.00 80 1013.4
20260510015003 20 0 0.0 0.0 0.00 0.00 0.00 80 1013.4
20260510014503 20 0 0.0 0.0 0.00 0.00 0.00 79 1013.2
20260510014003 20 0 0.0 0.0 0.00 0.00 0.00 79 1013.2
20260510013503 20 0 0.0 0.0 0.00 0.00 0.00 79 1013.1
20260510013003 20 0 0.0 0.0 0.00 0.00 0.00 79 1012.9
20260510012503 20 0 0.0 0.0 0.00 0.00 0.00 79 1012.9
20260510012216 20 0 0.0 0.0 0.00 0.00 0.00 78 1012.7
20260510011503 20 277 0.0 4.8 0.00 0.00 0.00 78 1012.8
20260510011216 20 277 0.0 4.8 0.00 0.00 0.00 78 1012.8
20260510010503 21 277 0.0 9.7 0.00 0.00 0.00 77 1012.8
20260510010003 21 277 0.0 9.7 0.00 0.00 0.00 77 1012.6
20260510005503 21 277 0.0 6.4 0.00 0.00 0.00 76 1012.5
20260510005216 21 277 0.0 6.4 0.00 0.00 0.00 76 1012.5
20260510004503 21 277 0.0 6.4 0.00 0.00 0.00 75 1012.5
20260510004003 21 277 0.0 4.8 0.00 0.00 0.00 74 1012.4
20260510003503 21 277 0.0 9.7 0.00 0.00 0.00 74 1012.4
20260510003003 21 277 1.6 12.9 0.00 0.00 0.00 74 1012.3
20260510002503 21 277 0.0 12.9 0.00 0.00 0.00 74 1012.3
20260510002003 21 0 0.0 0.0 0.00 0.00 0.00 74 1012.2
20260510001717 21 0 0.0 0.0 0.00 0.00 0.00 74 1012.2
20260510001003 21 0 0.0 0.0 0.00 0.00 0.00 74 1012.3
20260510000503 21 0 0.0 0.0 0.00 0.00 0.00 75 1012.2
20260510000003 21 0 0.0 0.0 0.00 0.00 0.00 74 1012.1
20260509235503 21 0 0.0 0.0 0.00 0.00 0.00 75 1011.9
20260509235218 21 0 0.0 0.0 0.00 0.00 0.00 75 1011.9
20260509234503 21 0 0.0 0.0 0.00 0.00 0.00 73 1012.3
20260509234003 22 0 0.0 0.0 0.00 0.00 0.00 70 1012.1
20260509233503 22 0 0.0 0.0 0.00 0.00 0.00 70 1011.8
20260509233218 22 0 0.0 0.0 0.00 0.00 0.00 70 1011.8
20260509232503 22 0 0.0 0.0 0.00 0.00 0.00 69 1012.0
20260509232003 22 0 0.0 0.0 0.00 0.00 0.00 73 1011.8
20260509231503 22 0 0.0 0.0 0.00 0.00 0.00 70 1012.0
20260509231003 22 0 0.0 0.0 0.00 0.00 0.00 66 1012.0
20260509230717 22 0 0.0 0.0 0.00 0.00 0.00 67 1012.0
20260509230003 22 0 0.0 0.0 0.00 0.00 0.00 69 1011.8
20260509225503 22 0 0.0 0.0 0.00 0.00 0.00 70 1012.2
20260509225003 22 0 0.0 0.0 0.00 0.00 0.00 70 1011.6
20260509224503 22 0 0.0 0.0 0.00 0.00 0.00 71 1011.8
20260509224003 22 0 0.0 0.0 0.00 0.00 0.00 68 1011.8
20260509223503 22 0 0.0 0.0 0.00 0.00 0.00 70 1011.8
20260509223003 23 0 0.0 0.0 0.00 0.00 0.00 66 1011.7
20260509222503 23 0 0.0 0.0 0.00 0.00 0.00 66 1011.5
20260509222003 23 0 0.0 0.0 0.00 0.00 0.00 62 1011.6
20260509221716 23 277 0.0 4.8 0.00 0.00 0.00 64 1011.5
20260509221003 23 277 0.0 4.8 0.00 0.00 0.00 63 1011.4
20260509220503 23 277 0.0 1.6 0.00 0.00 0.00 64 1011.3
20260509220003 23 0 0.0 0.0 0.00 0.00 0.00 65 1011.8
20260509215716 23 277 0.0 6.4 0.00 0.00 0.00 67 1011.7
20260509215003 23 277 0.0 6.4 0.00 0.00 0.00 64 1011.6
20260509214716 23 277 0.0 4.8 0.00 0.00 0.00 63 1011.5
20260509214003 23 277 0.0 6.4 0.00 0.00 0.00 64 1011.4
20260509213503 23 277 0.0 4.8 0.00 0.00 0.00 65 1011.4
20260509213003 23 277 0.0 4.8 0.00 0.00 0.00 66 1011.6
20260509212503 23 0 0.0 0.0 0.00 0.00 0.00 65 1011.3
20260509212003 23 277 0.0 1.6 0.00 0.00 0.00 66 1011.2
20260509211503 23 277 0.0 6.4 0.00 0.00 0.00 64 1011.3
20260509211003 23 277 0.0 6.4 0.00 0.00 0.00 64 1011.5
20260509210503 23 277 0.0 4.8 0.00 0.00 0.00 66 1011.5
20260509210217 23 277 0.0 4.8 0.00 0.00 0.00 67 1011.6
20260509205503 23 277 1.6 6.4 0.00 0.00 0.00 63 1011.8
20260509205003 23 277 1.6 6.4 0.00 0.00 0.00 64 1011.6